KLM87L EHAM-EKBI

Flight info

Callsign KLM87L
Flight time 0h 53m
Altitude 31000
Route ANDIK N873 REXMI DCT MIKRO DCT GELBA
Aircraft B738/M-SDE2E3FGHIRWXY/LB1

Departure

Time 2026-04-30 17:55
Airport Amsterdam Airport Schiphol (EHAM)

Arrival

Time 2026-04-30 18:49
Airport Billund Airport (EKBI)
Time Latitude Longitude Altitude Speed Heading
2026-04-30 17:39 52.30901 4.77175 -2 ft 0 kts
2026-04-30 17:41 52.30897 4.77175 -2 ft 3 kts
2026-04-30 17:42 52.30854 4.77171 -2 ft 3 kts 70°
2026-04-30 17:42 52.30849 4.77141 -2 ft 0 kts 77°
2026-04-30 17:47 52.30843 4.77288 -2 ft 10 kts 96°
2026-04-30 17:48 52.31079 4.77625 -2 ft 21 kts
2026-04-30 17:48 52.31531 4.77524 -2 ft 23 kts 313°
2026-04-30 17:49 52.31550 4.76575 -2 ft 20 kts 267°
2026-04-30 17:50 52.31523 4.75786 -2 ft 18 kts 266°
2026-04-30 17:51 52.31503 4.75211 -2 ft 16 kts 267°
2026-04-30 17:52 52.31512 4.74678 -2 ft 16 kts 319°
2026-04-30 17:53 52.31670 4.74730 -1 ft 0 kts 87°
2026-04-30 17:54 52.31714 4.76086 -2 ft 128 kts 87°
2026-04-30 17:55 52.32034 4.82952 2699 ft 180 kts 88°
2026-04-30 17:56 52.33546 4.92777 4881 ft 258 kts 60°
2026-04-30 17:57 52.36788 5.00032 7640 ft 268 kts 59°
2026-04-30 17:58 52.40093 5.07556 10214 ft 278 kts 59°
2026-04-30 17:59 52.46937 5.16293 11841 ft 352 kts 44°
2026-04-30 18:00 52.53901 5.27786 14815 ft 363 kts 47°
2026-04-30 18:00 52.59456 5.36471 16824 ft 374 kts 47°
2026-04-30 18:01 52.62644 5.41491 17925 ft 380 kts 47°
2026-04-30 18:02 52.68436 5.50686 19698 ft 390 kts 47°
2026-04-30 18:02 52.74864 5.58988 21347 ft 405 kts 32°
2026-04-30 18:03 52.82399 5.65646 22950 ft 414 kts 31°
2026-04-30 18:04 52.90084 5.72524 24366 ft 423 kts 31°
2026-04-30 18:05 53.00514 5.82013 26020 ft 432 kts 31°
2026-04-30 18:06 53.10280 5.90958 27419 ft 440 kts 31°
2026-04-30 18:07 53.21065 6.00888 29129 ft 442 kts 30°
2026-04-30 18:08 53.29074 6.08300 30612 ft 437 kts 30°
2026-04-30 18:09 53.39575 6.18067 31372 ft 435 kts 30°
2026-04-30 18:10 53.50119 6.27932 31397 ft 434 kts 30°
2026-04-30 18:11 53.67692 6.44498 31405 ft 435 kts 30°
2026-04-30 18:13 53.80867 6.57024 31412 ft 435 kts 30°
2026-04-30 18:14 53.94021 6.69620 31416 ft 434 kts 30°
2026-04-30 18:15 54.09761 6.84815 31403 ft 434 kts 29°
2026-04-30 18:16 54.14225 6.89149 31128 ft 434 kts 29°
2026-04-30 18:16 54.19467 6.94253 30841 ft 435 kts 29°
2026-04-30 18:17 54.22096 6.96817 30695 ft 435 kts 29°
2026-04-30 18:17 54.24724 6.99385 30547 ft 436 kts 29°
2026-04-30 18:17 54.30008 7.04558 30101 ft 438 kts 29°
2026-04-30 18:18 54.32656 7.07157 29885 ft 439 kts 29°
2026-04-30 18:18 54.35301 7.09757 29660 ft 439 kts 29°
2026-04-30 18:18 54.37948 7.12363 29433 ft 439 kts 30°
2026-04-30 18:18 54.40592 7.14969 29221 ft 438 kts 30°
2026-04-30 18:19 54.43232 7.17577 29004 ft 438 kts 30°
2026-04-30 18:19 54.45873 7.20188 28789 ft 437 kts 30°
2026-04-30 18:19 54.48508 7.22797 28537 ft 438 kts 30°
2026-04-30 18:19 54.51149 7.25417 28267 ft 438 kts 30°
2026-04-30 18:20 54.53793 7.28044 27982 ft 440 kts 30°
2026-04-30 18:20 54.56446 7.30683 27702 ft 440 kts 30°
2026-04-30 18:20 54.59099 7.33326 27419 ft 441 kts 30°
2026-04-30 18:20 54.61759 7.35981 27138 ft 442 kts 30°
2026-04-30 18:21 54.63683 7.37903 26941 ft 442 kts 30°
2026-04-30 18:21 54.66196 7.40417 26677 ft 442 kts 30°
2026-04-30 18:21 54.68855 7.43082 26396 ft 442 kts 30°
2026-04-30 18:21 54.71518 7.45754 26125 ft 443 kts 30°
2026-04-30 18:22 54.74182 7.48432 25863 ft 442 kts 30°
2026-04-30 18:22 54.79227 7.53514 25258 ft 440 kts 30°
2026-04-30 18:22 54.81852 7.56164 24759 ft 433 kts 30°
2026-04-30 18:23 54.84422 7.58763 24296 ft 426 kts 30°
2026-04-30 18:23 54.86970 7.61342 23790 ft 419 kts 30°
2026-04-30 18:23 54.89471 7.63878 23250 ft 413 kts 31°
2026-04-30 18:23 54.91905 7.66350 22715 ft 408 kts 31°
2026-04-30 18:24 54.96771 7.71302 21671 ft 398 kts 31°
2026-04-30 18:24 54.99142 7.73719 21164 ft 393 kts 31°
2026-04-30 18:24 55.01493 7.76108 20663 ft 389 kts 31°
2026-04-30 18:25 55.03799 7.78422 20178 ft 386 kts 31°
2026-04-30 18:25 55.08411 7.83036 19227 ft 379 kts 31°
2026-04-30 18:25 55.10691 7.85321 18761 ft 376 kts 31°
2026-04-30 18:26 55.14556 7.89210 17851 ft 371 kts 31°
2026-04-30 18:26 55.16787 7.91460 17332 ft 369 kts 32°
2026-04-30 18:26 55.19003 7.93698 16817 ft 366 kts 32°
2026-04-30 18:27 55.23388 7.98137 15826 ft 362 kts 32°
2026-04-30 18:27 55.25561 8.00341 15336 ft 360 kts 32°
2026-04-30 18:28 55.29864 8.04715 14430 ft 355 kts 32°
2026-04-30 18:28 55.31981 8.06870 14058 ft 349 kts 32°
2026-04-30 18:28 55.35860 8.11650 13476 ft 329 kts 52°
2026-04-30 18:29 55.37058 8.14949 13459 ft 315 kts 66°
2026-04-30 18:29 55.39376 8.25663 13469 ft 316 kts 71°
2026-04-30 18:30 55.40653 8.31812 13313 ft 325 kts 71°
2026-04-30 18:30 55.42466 8.40466 12698 ft 319 kts 71°
2026-04-30 18:31 55.42972 8.42871 12538 ft 318 kts 71°
2026-04-30 18:31 55.44516 8.50221 12021 ft 313 kts 71°
2026-04-30 18:32 55.46019 8.57390 11524 ft 310 kts 71°
2026-04-30 18:32 55.46764 8.60951 11289 ft 309 kts 71°
2026-04-30 18:32 55.48244 8.68048 10805 ft 308 kts 71°
2026-04-30 18:33 55.48980 8.71583 10568 ft 307 kts 71°
2026-04-30 18:33 55.50446 8.78645 10066 ft 304 kts 71°
2026-04-30 18:33 55.51167 8.82126 9801 ft 300 kts 71°
2026-04-30 18:34 55.51877 8.85559 9536 ft 295 kts 71°
2026-04-30 18:34 55.53211 8.92025 9192 ft 267 kts 71°
2026-04-30 18:34 55.53843 8.95097 8828 ft 267 kts 71°
2026-04-30 18:35 55.54476 8.98178 8549 ft 265 kts 71°
2026-04-30 18:35 55.54890 9.00199 8365 ft 264 kts 71°
2026-04-30 18:35 55.55713 9.04219 8000 ft 262 kts 71°
2026-04-30 18:36 55.56759 9.09393 7538 ft 260 kts 75°
2026-04-30 18:36 55.56926 9.12546 7477 ft 257 kts 91°
2026-04-30 18:36 55.56742 9.18808 7430 ft 255 kts 94°
2026-04-30 18:37 55.56667 9.20927 7332 ft 255 kts 94°
2026-04-30 18:37 55.56553 9.24041 7052 ft 255 kts 94°
2026-04-30 18:37 55.56436 9.27173 6729 ft 256 kts 94°
2026-04-30 18:37 55.56316 9.30308 6442 ft 255 kts 94°
2026-04-30 18:38 55.56197 9.33432 6159 ft 254 kts 94°
2026-04-30 18:38 55.56078 9.36545 5878 ft 254 kts 94°
2026-04-30 18:38 55.55963 9.39572 5594 ft 253 kts 94°
2026-04-30 18:38 55.56084 9.42644 5291 ft 253 kts 71°
2026-04-30 18:39 55.56937 9.45355 5035 ft 252 kts 56°
2026-04-30 18:39 55.57966 9.47856 4744 ft 252 kts 54°
2026-04-30 18:39 55.58998 9.50311 4435 ft 252 kts 54°
2026-04-30 18:39 55.60042 9.52797 4153 ft 252 kts 54°
2026-04-30 18:40 55.61086 9.55291 4038 ft 252 kts 54°
2026-04-30 18:40 55.62137 9.57815 3999 ft 251 kts 54°
2026-04-30 18:40 55.63152 9.60258 3987 ft 249 kts 54°
2026-04-30 18:40 55.64189 9.62760 3985 ft 249 kts 54°
2026-04-30 18:41 55.65205 9.65217 3998 ft 252 kts 54°
2026-04-30 18:41 55.66243 9.67728 3989 ft 252 kts 54°
2026-04-30 18:41 55.67414 9.70000 3879 ft 250 kts 33°
2026-04-30 18:41 55.69022 9.71031 3576 ft 249 kts
2026-04-30 18:42 55.70661 9.70445 3455 ft 236 kts 332°
2026-04-30 18:42 55.73040 9.67035 3183 ft 210 kts 303°
2026-04-30 18:42 55.73830 9.64894 3059 ft 207 kts 303°
2026-04-30 18:45 55.74828 9.40611 2494 ft 194 kts 268°
2026-04-30 18:45 55.74768 9.38312 2476 ft 179 kts 268°
2026-04-30 18:45 55.74701 9.36171 2314 ft 168 kts 268°
2026-04-30 18:46 55.74634 9.34148 2093 ft 161 kts 268°
2026-04-30 18:46 55.74571 9.32200 1898 ft 157 kts 268°
2026-04-30 18:46 55.74509 9.30266 1681 ft 157 kts 268°
2026-04-30 18:46 55.74447 9.28370 1458 ft 150 kts 268°
2026-04-30 18:47 55.74389 9.26550 1260 ft 145 kts 269°
2026-04-30 18:47 55.74332 9.24762 1059 ft 146 kts 269°
2026-04-30 18:47 55.74275 9.22951 859 ft 147 kts 268°
2026-04-30 18:47 55.74212 9.21147 628 ft 147 kts 268°
2026-04-30 18:48 55.74154 9.19345 415 ft 145 kts 268°
2026-04-30 18:48 55.74104 9.17567 233 ft 143 kts 269°
2026-04-30 18:48 55.74059 9.15976 215 ft 109 kts 267°
2026-04-30 18:48 55.74023 9.14950 215 ft 62 kts 267°
2026-04-30 18:49 55.74015 9.14547 217 ft 18 kts 290°
2026-04-30 18:49 55.74104 9.14491 215 ft 10 kts 358°
2026-04-30 18:49 55.74121 9.14490 215 ft 0 kts 357°
2026-04-30 18:50 55.74159 9.14486 218 ft 10 kts 357°
2026-04-30 18:50 55.74233 9.14480 218 ft 11 kts 357°
2026-04-30 18:50 55.74308 9.14472 222 ft 11 kts 356°
2026-04-30 18:50 55.74380 9.14465 222 ft 10 kts 356°
2026-04-30 18:51 55.74437 9.14513 217 ft 10 kts 69°
2026-04-30 18:51 55.74446 9.14634 220 ft 10 kts 86°
2026-04-30 18:51 55.74452 9.14687 216 ft 1 kts 51°
2026-04-30 18:51 55.74472 9.14692 218 ft 5 kts 351°
2026-04-30 18:52 55.74510 9.14686 216 ft 6 kts 357°
2026-04-30 18:52 55.74528 9.14684 215 ft 0 kts 357°